Date,TemperatureHighF,TemperatureAvgF,TemperatureLowF,DewpointHighF,DewpointAvgF,DewpointLowF,HumidityHigh,HumidityAvg,HumidityLow,PressureMaxIn,PressureMinIn,WindSpeedMaxMPH,WindSpeedAvgMPH,GustSpeedMaxMPH,PrecipitationSumIn
2014-1-1,26.2,20.4,14.7,24.8,10.5,4.6,100,66,48,0.00,40.00,15,3,18,0.00
2014-1-2,21.7,11.7,0.7,19.9,10.9,-0.4,100,96,74,0.00,40.00,19,5,30,0.00
2014-1-3,10.8,4.0,-1.7,7.7,-0.8,-10.3,100,82,58,0.00,40.00,19,6,26,0.00
2014-1-4,25.9,11.4,-2.9,19.2,4.9,-7.1,100,78,46,0.00,40.00,11,2,17,0.00
2014-1-5,36.7,27.1,15.3,36.3,22.8,11.1,100,85,58,0.00,40.00,8,1,12,0.00
2014-1-6,56.8,38.1,23.4,55.6,36.2,13.3,100,93,66,0.00,40.00,18,4,22,0.00
2014-1-7,24.3,9.1,3.4,19.6,-2.9,-10.1,94,58,44,0.00,40.00,22,8,29,0.00
2014-1-8,18.7,10.5,2.5,18.1,1.9,-7.4,100,68,54,0.00,40.00,11,4,14,0.00
2014-1-9,28.9,18.9,12.2,23.7,10.5,4.1,100,71,47,0.00,40.00,11,2,15,0.00
2014-1-10,38.1,26.8,13.8,37.8,26.4,12.7,100,99,88,0.00,40.00,6,0,7,0.00
2014-1-11,57.2,46.1,33.1,57.2,46.1,32.7,100,100,100,0.00,40.00,14,2,19,0.00
2014-1-12,51.6,39.4,32.2,51.6,32.7,23.4,100,78,60,0.00,40.00,23,7,28,0.00
2014-1-13,47.7,37.8,27.9,44.8,32.1,22.6,100,82,53,0.00,40.00,10,2,18,0.00
2014-1-14,46.6,43.2,39.4,46.2,43.2,38.8,100,100,100,0.00,40.00,11,2,13,0.00
2014-1-15,46.6,36.8,30.0,45.1,36.3,29.7,100,98,77,0.00,40.00,12,1,13,0.00
2014-1-16,41.0,35.1,30.9,40.6,35.1,30.7,100,100,100,0.00,40.00,3,0,4,0.00
2014-1-17,42.4,34.6,29.5,37.8,29.7,23.4,100,84,53,0.00,40.00,9,1,11,0.00
2014-1-18,36.7,32.0,30.0,36.0,32.0,29.5,100,100,98,0.00,40.00,5,0,6,0.00
2014-1-19,31.6,28.0,24.3,31.5,25.1,19.9,100,89,71,0.00,40.00,11,2,18,0.00
2014-1-20,38.7,31.7,20.3,34.9,23.9,6.8,100,73,55,0.00,40.00,21,4,25,0.00
2014-1-21,20.5,13.3,6.4,14.7,5.8,0.7,100,73,50,0.00,40.00,15,3,17,0.00
2014-1-22,14.5,8.2,3.4,7.2,-1.4,-6.3,97,65,50,0.00,40.00,14,6,23,0.00
2014-1-23,18.0,8.1,1.0,3.6,-2.7,-7.2,80,61,46,0.00,40.00,13,4,16,0.00
2014-1-24,16.0,8.7,1.8,13.1,-0.8,-7.2,100,66,46,0.00,40.00,15,4,19,0.00
2014-1-25,33.1,21.5,10.2,28.8,16.9,0.1,100,84,60,0.00,40.00,18,3,25,0.00
2014-1-26,20.5,15.1,8.1,20.3,6.2,-3.5,100,69,50,0.00,40.00,21,5,26,0.00
2014-1-27,39.9,25.8,15.1,39.2,19.7,0.1,100,80,43,0.00,40.00,16,4,25,0.00
2014-1-28,17.4,12.6,6.4,8.2,-2.9,-9.9,73,50,41,0.00,40.00,13,4,19,0.00
2014-1-29,24.1,16.5,11.8,16.3,2.2,-4.4,100,56,31,0.00,40.00,14,3,21,0.00
2014-1-30,31.3,18.4,8.8,21.7,7.1,-2.4,100,63,37,0.00,40.00,7,1,13,0.00
2014-1-31,38.5,29.7,17.8,34.0,19.1,9.3,100,68,42,0.00,40.00,10,2,17,0.00
2014-2-1,31.3,30.5,29.8,21.6,20.6,19.9,67,66,65,0.00,40.00,4,2,6,0.00
2014-2-4,30.7,28.1,27.1,30.7,27.2,25.5,100,96,93,0.00,40.00,2,0,4,0.00
2014-2-5,30.9,25.8,21.4,30.9,25.8,21.4,100,100,99,0.00,40.00,12,3,18,0.00
2014-2-6,32.2,20.7,14.2,23.4,14.8,9.7,100,80,43,0.00,40.00,5,1,12,0.00
2014-2-7,30.7,19.4,9.9,25.5,12.1,6.3,100,75,46,0.00,40.00,12,2,17,0.00
2014-2-8,27.9,19.3,10.9,16.3,6.5,1.0,100,59,40,0.00,40.00,9,2,12,0.00
2014-2-9,32.5,24.1,16.7,31.5,16.0,6.1,100,72,53,0.00,40.00,6,0,11,0.00
2014-2-10,26.2,19.6,12.6,26.2,12.8,5.0,100,77,50,0.00,40.00,12,3,16,0.00
2014-2-11,23.2,14.3,5.9,15.1,6.7,2.7,100,74,46,0.00,40.00,12,4,21,0.00
2014-2-12,29.1,15.8,2.5,21.6,6.0,-3.6,100,69,33,0.00,40.00,8,1,15,0.00
2014-2-13,31.3,23.9,17.8,31.3,23.4,11.8,100,98,74,0.00,40.00,18,5,37,0.00
2014-2-14,34.3,29.6,24.3,33.1,29.0,24.3,100,98,92,0.00,40.00,10,0,18,0.00
2014-2-15,33.6,27.7,22.8,33.6,27.6,22.8,100,100,96,0.00,40.00,13,1,19,0.00
2014-2-16,29.5,22.8,16.9,27.9,13.6,7.5,100,68,45,0.00,40.00,16,6,25,0.00
2014-2-17,30.2,17.8,9.3,20.5,2.6,-2.4,100,53,30,0.00,40.00,11,4,18,0.00
2014-2-18,27.1,18.1,8.8,27.1,16.2,0.0,100,93,58,0.00,40.00,11,1,15,0.00
2014-2-19,37.0,26.9,16.2,37.0,26.3,16.2,100,98,72,0.00,40.00,7,0,10,0.00
2014-2-20,48.6,36.7,27.9,36.9,30.1,21.9,100,81,37,0.00,40.00,8,1,13,0.00
2014-2-21,39.4,35.4,32.0,39.4,35.4,32.0,100,100,100,0.00,40.00,5,1,9,0.00
2014-2-22,53.4,39.6,30.2,38.7,29.4,22.6,100,72,32,0.00,40.00,12,3,23,0.00
2014-2-23,48.0,40.7,33.1,34.9,27.2,22.5,84,59,44,0.00,40.00,9,2,13,0.00
2014-2-24,38.7,28.2,19.4,28.4,13.9,5.7,70,55,42,0.00,40.00,23,8,27,0.00
2014-2-25,25.9,19.7,14.7,13.8,9.1,5.5,85,63,53,0.00,40.00,14,4,24,0.00
2014-2-26,27.1,17.5,9.7,20.5,6.3,-6.0,100,64,39,0.00,40.00,13,3,19,0.00
2014-2-27,28.9,16.6,7.0,25.7,8.3,-4.4,100,72,43,0.00,40.00,18,3,26,0.00
2014-2-28,24.1,12.7,2.8,17.2,-3.4,-8.7,100,50,26,0.00,40.00,12,4,21,0.00
2014-3-1,33.8,21.1,4.5,30.4,12.9,-2.2,100,73,42,0.00,40.00,9,1,16,0.00
2014-3-2,38.8,31.5,25.5,34.2,21.1,12.7,100,66,54,0.00,40.00,8,2,12,0.00
2014-3-3,26.2,18.5,11.8,15.4,5.1,-3.8,100,56,41,0.00,40.00,10,3,17,0.00
2014-3-4,30.9,18.4,3.7,27.1,6.2,-2.0,100,63,33,0.00,40.00,7,0,9,0.00
2014-3-5,29.3,23.4,13.6,27.3,16.7,5.7,100,76,54,0.00,40.00,7,1,14,0.00
2014-3-6,37.0,18.7,6.3,18.9,2.0,-5.6,100,50,22,0.00,40.00,9,1,12,0.00
2014-3-7,42.3,25.1,7.2,34.5,18.3,5.2,100,78,43,0.00,40.00,6,0,10,0.00
2014-3-8,51.4,38.1,25.3,37.9,27.0,21.4,100,68,38,0.00,40.00,10,2,15,0.00
2014-3-9,39.9,32.2,26.2,26.8,16.3,10.8,72,52,34,0.00,40.00,15,3,18,0.00
2014-3-10,42.3,34.0,27.1,41.7,24.0,11.5,100,68,50,0.00,40.00,10,1,15,0.00
2014-3-11,57.2,42.8,31.5,42.1,31.5,26.6,100,69,35,0.00,40.00,15,3,25,0.00
2014-3-12,48.4,39.6,34.3,42.8,35.0,27.9,100,85,57,0.00,40.00,9,1,15,0.00
2014-3-13,36.0,18.2,10.2,36.0,12.3,-1.5,100,80,48,0.00,40.00,17,8,28,0.00
2014-3-14,39.0,24.4,10.6,26.1,11.0,0.1,77,57,34,0.00,40.00,14,4,16,0.00
2014-3-15,52.0,40.2,31.8,44.6,32.5,22.1,100,76,44,0.00,40.00,22,5,32,0.00
2014-3-16,35.1,26.8,21.0,23.0,10.4,3.4,66,50,33,0.00,40.00,14,6,22,0.00
2014-3-17,39.0,23.1,13.3,18.1,4.5,-2.4,60,45,24,0.00,40.00,9,2,14,0.00
2014-3-18,46.2,28.1,16.2,25.5,12.5,1.9,100,55,23,0.00,40.00,7,0,10,0.00
2014-3-19,47.3,33.1,22.5,34.9,24.1,15.8,100,74,30,0.00,40.00,6,0,11,0.00
2014-3-20,48.4,38.3,31.5,45.0,32.9,22.5,100,83,46,0.00,40.00,17,5,27,0.00
2014-3-21,39.4,34.3,28.8,25.0,22.2,19.0,70,61,50,0.00,40.00,20,7,24,0.00
2014-3-22,54.0,37.1,25.5,38.8,27.4,19.6,100,71,38,0.00,40.00,26,4,29,0.00
2014-3-23,37.2,32.6,22.6,33.8,17.2,5.0,100,54,37,0.00,40.00,15,4,20,0.00
2014-3-24,33.3,22.0,12.6,8.2,2.8,-1.3,64,44,28,0.00,40.00,15,3,20,0.00
2014-3-25,38.7,27.0,16.0,21.6,12.6,6.8,100,57,34,0.00,40.00,9,1,15,0.00
2014-3-26,33.3,27.5,19.6,21.6,10.7,-0.8,73,50,33,0.00,40.00,21,8,32,0.00
2014-3-27,45.9,29.3,16.5,18.0,5.9,-0.6,57,38,20,0.00,40.00,12,4,20,0.00
2014-3-28,54.5,41.8,31.3,50.7,37.1,18.1,100,84,55,0.00,40.00,12,3,21,0.00
2014-3-29,52.0,44.0,36.7,49.5,43.0,36.7,100,97,67,0.00,40.00,10,3,17,0.00
2014-3-30,40.1,37.1,33.6,40.1,37.1,33.6,100,100,100,0.00,40.00,18,7,25,0.00
2014-3-31,39.4,34.8,31.8,39.4,34.8,31.8,100,100,99,0.00,40.00,17,5,21,0.00
2014-4-1,62.4,42.7,30.0,41.0,32.6,27.9,100,71,34,0.00,40.00,11,2,19,0.00
2014-4-2,62.1,45.5,33.8,37.6,32.4,23.0,100,63,37,0.00,40.00,10,1,12,0.00
2014-4-3,60.6,45.6,35.2,41.7,27.0,20.7,97,51,26,0.00,40.00,9,2,12,0.00
2014-4-4,52.3,41.9,35.2,39.0,31.5,25.9,100,68,47,0.00,40.00,8,1,11,0.00
2014-4-5,48.6,39.9,33.8,45.7,33.3,22.1,100,80,45,0.00,40.00,17,5,25,0.00
2014-4-6,57.4,41.9,29.7,32.7,22.0,16.0,100,50,21,0.00,40.00,12,3,16,0.00
2014-4-7,59.0,46.9,34.5,44.8,27.7,16.9,100,52,22,0.00,40.00,10,1,14,0.00
2014-4-8,64.4,51.1,41.7,63.0,46.2,31.5,100,86,50,0.00,40.00,17,4,27,0.00
2014-4-9,56.3,44.9,35.2,43.5,28.7,9.7,100,60,24,0.00,40.00,21,4,25,0.00
2014-4-10,63.1,45.6,31.5,34.3,23.2,12.9,81,44,20,0.00,40.00,15,3,20,0.00
2014-4-11,66.9,54.2,44.2,57.2,42.3,33.3,100,67,39,0.00,40.00,11,2,15,0.00
2014-4-12,69.4,54.5,41.4,50.0,36.8,25.3,100,60,21,0.00,40.00,13,3,20,0.00
2014-4-13,73.9,56.4,45.1,55.8,43.5,34.2,100,64,38,0.00,40.00,13,1,15,0.00
2014-4-14,73.2,63.6,57.2,64.6,55.6,47.8,100,78,45,0.00,40.00,19,6,29,0.00
2014-4-15,62.4,56.8,36.7,62.4,56.8,36.7,100,100,100,0.00,40.00,16,5,23,0.01
2014-4-16,43.5,34.0,25.0,37.0,23.7,17.6,100,69,39,0.00,40.00,19,6,27,0.01
2014-4-17,50.7,35.8,26.2,32.4,23.3,17.1,100,62,39,0.00,40.00,9,2,21,0.00
2014-4-18,50.2,37.9,27.3,44.2,32.2,27.3,100,82,52,0.00,40.00,7,1,12,0.00
2014-4-19,63.0,47.7,35.6,43.5,33.2,26.6,100,64,29,0.00,40.00,12,3,19,0.00
2014-4-20,63.3,47.4,34.0,40.5,25.5,16.0,100,48,16,0.00,40.00,8,1,12,0.00
2014-4-21,74.1,53.2,36.0,38.5,25.0,15.1,89,40,11,0.00,40.00,8,1,14,0.00
2014-4-22,75.2,58.1,44.2,57.2,43.5,36.0,100,65,25,0.00,40.00,12,3,17,0.00
2014-4-23,55.0,49.1,43.2,55.0,44.5,30.2,100,86,55,0.00,40.00,18,5,29,0.00
2014-4-24,56.1,46.0,36.9,30.9,23.3,15.1,61,42,27,0.00,40.00,23,8,34,0.00
2014-4-25,68.7,51.7,38.5,32.5,24.6,14.4,55,38,13,0.00,40.00,8,1,13,0.00
2014-4-26,50.2,45.3,41.2,49.6,41.9,28.6,100,90,46,0.00,40.00,3,0,8,0.00
2014-4-27,51.6,44.4,40.6,51.1,41.9,35.8,100,92,64,0.00,40.00,10,2,15,0.00
2014-4-28,63.0,48.7,38.7,43.2,39.1,34.2,100,73,39,0.00,40.00,12,2,19,0.00
2014-4-29,47.1,41.9,38.5,46.8,41.7,38.5,100,99,88,0.00,40.00,10,2,19,0.00
2014-4-30,47.3,41.3,37.6,47.3,41.3,37.6,100,100,100,0.00,40.00,8,1,10,0.00
2014-5-1,71.2,52.1,40.5,69.1,51.4,40.5,100,98,64,0.00,40.00,7,1,9,0.00
2014-5-2,65.8,56.5,47.1,56.8,43.6,34.3,100,67,35,0.00,40.00,12,3,19,0.00
2014-5-3,67.6,56.3,43.5,50.0,40.1,32.2,100,58,29,0.00,40.00,9,1,13,0.00
2014-5-4,58.6,52.1,46.6,52.3,40.8,32.7,100,68,41,0.00,40.00,20,7,30,0.00
2014-5-5,62.1,52.7,44.2,49.5,40.7,36.1,100,67,43,0.00,40.00,16,4,19,0.00
2014-5-6,60.4,52.2,43.0,45.3,35.0,25.9,100,56,31,0.00,40.00,10,3,23,0.00
2014-5-7,67.5,55.0,41.2,36.7,28.2,21.0,61,38,18,0.00,40.00,9,2,13,0.00
2014-5-8,67.1,56.4,44.1,58.5,44.9,32.5,100,67,43,0.00,40.00,8,1,13,0.00
2014-5-9,57.2,54.6,51.1,57.2,54.6,51.1,100,100,100,0.00,40.00,5,1,11,0.00
2014-5-10,79.3,65.6,54.0,72.1,61.0,52.0,100,88,43,0.00,40.00,10,2,16,0.00
2014-5-11,77.2,66.0,55.6,62.1,39.2,22.5,100,46,14,0.00,40.00,12,4,19,0.00
2014-5-12,85.5,69.9,54.1,56.1,40.3,31.8,65,38,17,0.00,40.00,9,2,18,0.00
2014-5-13,68.7,54.2,46.2,54.7,42.3,38.1,85,65,46,0.00,40.00,9,1,15,0.00
2014-5-14,75.7,58.5,44.2,63.7,47.7,39.0,100,73,33,0.00,40.00,7,1,10,0.00
2014-5-15,75.2,65.7,57.7,71.1,64.6,57.7,100,97,71,0.00,40.00,7,1,11,0.00
2014-5-16,67.6,63.8,60.4,67.6,63.8,60.4,100,100,100,0.00,40.00,10,1,13,0.00
2014-5-17,72.9,63.2,54.7,65.3,52.5,38.3,100,74,34,0.00,40.00,12,2,15,0.00
2014-5-18,68.7,57.6,47.3,44.8,36.6,25.5,67,48,23,0.00,40.00,7,2,14,0.00
2014-5-19,63.9,55.9,46.2,43.5,35.3,30.9,64,47,32,0.00,40.00,9,2,18,0.00
2014-5-20,74.1,62.7,52.5,45.3,37.6,32.4,64,42,23,0.00,40.00,11,2,21,0.00
2014-5-21,76.1,61.3,48.6,56.7,46.0,37.6,100,62,27,0.00,40.00,7,0,10,0.00
2014-5-22,63.9,56.5,52.2,63.9,56.1,48.0,100,99,76,0.00,40.00,5,0,6,0.00
2014-5-23,61.3,55.7,50.7,61.3,55.7,50.7,100,100,100,0.00,40.00,4,0,8,0.00
2014-5-24,65.8,56.0,49.5,60.1,52.3,45.7,100,89,56,0.00,40.00,7,1,13,0.00
2014-5-25,70.3,58.5,48.6,67.1,56.5,48.6,100,94,58,0.00,40.00,6,0,10,0.00
2014-5-26,78.4,65.1,52.5,63.7,54.6,49.3,100,73,43,0.00,40.00,10,2,17,0.00
2014-5-27,77.2,64.1,47.8,64.0,53.9,47.8,100,72,53,0.00,40.00,8,2,13,0.00
2014-5-28,50.2,47.2,43.2,50.2,47.2,43.2,100,100,100,0.00,40.00,10,2,18,0.00
2014-5-29,66.6,53.1,38.8,54.1,43.6,36.7,100,76,36,0.00,40.00,6,0,10,0.00
2014-5-30,69.6,57.3,46.8,59.4,51.5,44.2,100,84,42,0.00,40.00,10,1,29,0.00
2014-5-31,64.8,56.3,48.9,59.7,48.8,35.4,100,79,47,0.00,40.00,11,1,18,0.00
2014-6-1,74.1,61.1,46.8,55.9,43.8,35.4,100,60,27,0.00,40.00,7,0,9,0.00
2014-6-2,80.1,66.8,52.9,54.5,47.7,39.7,77,52,31,0.00,40.00,5,1,9,0.00
2014-6-3,81.9,67.5,55.0,69.8,58.6,50.7,100,77,46,0.00,40.00,5,0,11,0.00
2014-6-4,70.3,62.0,54.0,70.3,61.5,47.3,100,99,63,0.00,40.00,4,0,7,0.00
2014-6-5,63.9,60.5,56.3,63.9,60.5,56.3,100,100,100,0.00,40.00,9,1,11,0.00
2014-6-6,71.2,62.6,54.5,63.3,54.1,48.2,100,77,47,0.00,40.00,10,2,16,0.00
2014-6-7,81.1,68.4,57.2,63.9,55.6,48.7,100,69,36,0.00,40.00,6,1,11,0.00
2014-6-8,83.5,71.4,58.3,66.4,54.8,45.9,100,61,29,0.00,40.00,6,0,10,0.00
2014-6-9,76.1,66.9,60.3,69.8,60.0,50.7,100,81,47,0.00,40.00,4,0,8,0.00
2014-6-10,80.1,67.9,60.6,76.1,66.5,60.6,100,96,58,0.00,40.00,9,1,15,0.00
2014-6-11,70.3,62.7,57.4,64.6,55.4,48.2,100,79,52,0.00,40.00,6,1,10,0.00
2014-6-12,67.1,61.5,56.3,67.1,60.6,50.2,100,97,71,0.00,40.00,3,0,6,0.00
2014-6-13,64.8,61.2,58.3,64.8,61.2,58.3,100,100,100,0.00,40.00,6,1,9,0.00
2014-6-14,73.6,63.6,56.1,72.5,59.8,47.8,100,89,54,0.00,40.00,8,2,14,0.00
2014-6-15,77.4,65.1,53.6,61.5,53.8,45.7,100,71,41,0.00,40.00,14,3,16,0.00
2014-6-16,79.3,67.5,55.8,54.1,46.3,40.3,71,49,27,0.00,40.00,6,0,8,0.00
2014-6-17,86.5,72.0,60.4,78.3,64.5,51.1,100,80,43,0.00,40.00,5,1,9,0.00
2014-6-18,82.6,74.0,65.8,73.9,65.2,55.6,100,78,47,0.00,40.00,11,3,19,0.00
2014-6-19,80.4,71.7,63.7,70.2,55.6,36.9,100,65,25,0.00,40.00,9,2,15,0.00
2014-6-20,74.8,64.7,54.1,47.8,41.6,32.5,70,45,24,0.00,40.00,9,2,16,0.00
2014-6-21,72.7,62.6,50.7,54.0,45.9,41.4,97,57,37,0.00,40.00,6,1,11,0.00
2014-6-22,75.2,64.6,53.4,60.6,49.4,45.0,100,60,39,0.00,40.00,5,0,9,0.00
2014-6-23,80.1,66.4,54.7,65.7,54.8,46.2,100,71,34,0.00,40.00,4,0,11,0.00
2014-6-24,80.1,68.2,57.4,66.6,56.9,48.0,100,71,45,0.00,40.00,11,1,13,0.00
2014-6-25,83.8,72.6,61.9,78.3,68.0,54.0,100,87,55,0.00,40.00,7,2,13,0.00
2014-6-26,80.4,71.8,63.3,78.6,71.6,63.3,100,99,70,0.00,40.00,10,1,12,0.00
2014-6-27,76.5,67.7,57.9,63.9,54.4,46.6,100,67,37,0.00,40.00,9,1,13,0.00
2014-6-28,83.1,70.3,59.0,70.3,56.2,41.7,100,67,27,0.00,40.00,6,0,10,0.00
2014-6-29,82.4,71.4,60.6,70.5,59.9,54.3,100,71,41,0.00,40.00,4,1,10,0.00
2014-6-30,85.8,72.6,59.5,70.2,60.1,54.5,100,68,41,0.00,40.00,7,2,16,0.00
2014-7-1,86.2,75.7,65.3,80.2,68.7,58.1,100,81,53,0.00,40.00,6,1,13,0.00
2014-7-2,88.3,76.6,68.5,84.9,73.6,68.5,100,92,58,0.00,40.00,9,1,12,0.00
2014-7-3,88.3,77.3,68.0,85.6,73.7,66.2,100,91,55,0.00,40.00,8,1,14,0.00
2014-7-4,73.8,66.7,60.6,73.8,66.7,60.6,100,100,100,0.00,40.00,7,1,13,0.00
2014-7-5,76.8,67.0,57.9,62.1,50.9,41.2,100,61,33,0.00,40.00,12,4,23,0.00
2014-7-6,81.1,70.2,57.9,64.9,52.9,43.7,100,58,33,0.00,40.00,8,1,12,0.00
2014-7-7,85.1,73.8,64.9,77.7,68.2,59.7,100,86,50,0.00,40.00,8,1,12,0.00
2014-7-8,87.1,76.0,66.4,79.2,70.1,62.8,100,85,50,0.00,40.00,8,1,13,0.00
2014-7-9,84.7,76.1,68.0,75.2,65.8,54.5,100,75,39,0.00,40.00,9,2,17,0.00
2014-7-10,79.5,71.1,63.9,70.3,60.4,50.9,100,73,42,0.00,40.00,8,1,9,0.00
2014-7-11,79.3,70.5,63.3,68.4,57.9,50.5,100,67,43,0.00,40.00,6,1,11,0.00
2014-7-12,83.8,71.8,60.3,69.1,59.8,52.0,100,71,38,0.00,40.00,5,0,8,0.00
2014-7-13,82.2,72.7,63.9,75.0,66.5,56.7,100,83,56,0.00,40.00,9,2,13,0.00
2014-7-14,80.8,74.1,68.4,80.8,74.1,68.4,100,100,100,0.00,40.00,5,0,9,0.00
2014-7-15,81.9,75.4,70.3,81.9,75.4,70.2,100,100,100,0.00,40.00,7,1,12,0.01
2014-7-16,75.6,71.4,67.1,75.6,71.4,67.1,100,100,100,0.00,40.00,5,0,6,0.00
2014-7-17,78.4,69.9,62.8,68.7,59.3,50.4,100,73,42,0.00,40.00,5,1,9,0.00
2014-7-18,79.3,68.6,58.3,66.0,56.8,45.7,100,71,34,0.00,40.00,5,0,9,0.00
2014-7-19,75.7,67.9,59.9,73.9,63.5,55.4,100,88,52,0.00,40.00,4,0,5,0.00
2014-7-20,78.3,67.7,59.0,67.5,59.1,49.8,100,78,41,0.00,40.00,5,0,9,0.00
2014-7-21,81.5,68.8,58.3,70.2,59.2,47.1,100,76,38,0.00,40.00,7,0,10,0.00
2014-7-22,88.2,74.8,62.1,76.6,65.9,58.3,100,79,39,0.00,40.00,7,1,10,0.00
2014-7-23,89.2,76.5,66.4,81.5,72.3,65.5,100,89,52,0.00,40.00,9,2,16,0.00
2014-7-24,79.2,72.1,66.6,74.1,64.1,53.2,100,79,47,0.00,40.00,9,1,10,0.00
2014-7-25,79.3,68.9,56.8,66.2,56.4,49.3,100,67,42,0.00,40.00,7,1,11,0.00
2014-7-26,80.8,70.3,59.9,71.2,60.9,50.5,100,77,41,0.00,40.00,6,1,11,0.00
2014-7-27,77.4,70.5,65.7,77.4,70.5,65.7,100,100,100,0.00,40.00,6,0,12,0.00
2014-7-28,81.1,71.0,64.6,80.4,70.4,64.4,100,98,73,0.00,40.00,9,1,11,0.00
2014-7-29,74.8,66.7,60.1,67.6,58.9,50.9,100,79,46,0.00,40.00,10,2,12,0.00
2014-7-30,77.9,66.8,57.4,64.8,55.4,46.8,100,72,36,0.00,40.00,5,0,9,0.00
2014-7-31,79.5,68.5,56.7,69.1,59.2,52.5,100,77,43,0.00,40.00,9,1,10,0.00
2014-8-1,81.9,71.8,64.2,76.1,67.8,60.4,100,89,53,0.00,40.00,8,1,17,0.00
2014-8-2,72.3,67.3,62.4,71.8,67.3,62.4,100,100,96,0.00,40.00,5,0,9,0.00
2014-8-3,76.5,66.9,59.5,72.7,64.6,59.2,100,94,60,0.00,40.00,5,0,7,0.00
2014-8-4,82.4,72.5,63.7,74.5,66.4,58.5,100,84,49,0.00,40.00,5,1,9,0.00
2014-8-5,86.9,74.7,65.7,73.6,62.7,53.2,100,72,35,0.00,40.00,5,1,8,0.00
2014-8-6,79.5,72.1,66.4,73.0,60.3,50.9,100,70,41,0.00,40.00,8,2,12,0.00
2014-8-7,76.5,66.9,59.7,62.8,53.9,49.3,100,65,43,0.00,40.00,7,1,14,0.00
2014-8-8,79.3,68.0,57.7,63.9,56.0,49.6,100,70,37,0.00,40.00,9,2,14,0.00
2014-8-9,83.8,71.2,60.6,65.3,55.8,48.6,99,61,34,0.00,40.00,6,1,13,0.00
2014-8-10,84.4,72.1,61.0,67.5,55.9,45.3,100,62,29,0.00,40.00,7,0,11,0.00
2014-8-11,86.2,72.1,61.9,71.1,61.1,51.1,100,73,32,0.00,40.00,9,1,15,0.00
2014-8-12,80.4,70.5,62.1,72.3,63.8,51.8,100,83,40,0.00,40.00,8,1,11,0.00
2014-8-13,70.2,66.8,63.0,70.2,66.8,63.0,100,100,100,0.00,40.00,5,1,11,0.00
2014-8-14,74.1,64.2,56.8,64.4,54.5,46.2,100,75,41,0.00,40.00,10,2,15,0.00
2014-8-15,66.2,60.6,55.2,61.2,55.1,47.5,100,84,56,0.00,40.00,5,1,9,0.00
2014-8-16,75.7,64.4,54.0,63.3,54.5,48.2,100,74,43,0.00,40.00,6,1,9,0.00
2014-8-17,77.9,66.5,59.5,69.3,60.2,52.2,100,83,49,0.00,40.00,9,1,11,0.00
2014-8-18,75.2,65.1,56.1,65.3,54.2,45.3,100,73,36,0.00,40.00,9,2,15,0.00
2014-8-19,78.4,64.6,52.9,63.7,53.8,46.4,100,73,37,0.00,40.00,6,1,9,0.00
2014-8-20,80.4,67.6,56.8,68.2,57.2,50.9,100,74,41,0.00,40.00,7,0,9,0.00
2014-8-21,74.1,66.6,58.6,69.4,60.3,52.5,100,83,51,0.00,40.00,4,0,6,0.00
2014-8-22,70.7,64.4,59.0,70.7,64.4,59.0,100,100,96,0.00,40.00,6,1,9,0.00
2014-8-23,71.6,64.5,58.5,68.5,60.4,53.4,100,88,58,0.00,40.00,8,1,11,0.00
2014-8-24,78.3,65.4,54.5,67.1,57.6,52.2,100,80,45,0.00,40.00,10,1,12,0.00
2014-8-25,84.7,72.6,62.1,72.3,61.5,53.4,100,74,37,0.00,40.00,7,1,10,0.00
2014-8-26,86.9,73.3,63.7,75.4,64.3,53.1,100,79,36,0.00,40.00,6,1,9,0.00
2014-8-27,86.5,73.1,63.3,78.3,68.5,63.3,100,88,48,0.00,40.00,6,1,10,0.00
2014-8-28,76.1,68.6,60.4,70.5,58.5,48.2,100,74,42,0.00,40.00,10,2,21,0.00
2014-8-29,75.6,64.1,55.2,63.9,54.8,47.8,100,75,44,0.00,40.00,6,1,10,0.00
2014-8-30,75.7,64.5,54.1,67.5,58.3,51.6,100,83,48,0.00,40.00,6,1,11,0.00
2014-8-31,80.8,71.8,63.7,80.8,71.8,63.7,100,100,100,0.00,40.00,6,1,14,0.00
2014-9-1,85.5,75.0,67.5,79.0,70.8,63.9,100,89,52,0.00,40.00,4,1,8,0.00
2014-9-2,85.1,75.3,69.1,83.1,75.2,69.1,100,100,93,0.00,40.00,7,1,17,0.00
2014-9-3,80.1,71.9,64.8,74.1,63.6,54.3,100,79,44,0.00,40.00,7,2,14,0.00
2014-9-4,83.1,70.0,57.7,70.5,60.8,53.4,100,77,38,0.00,40.00,6,1,10,0.00
2014-9-5,84.4,73.4,64.2,79.5,70.3,64.2,100,92,55,0.00,40.00,6,1,10,0.00
2014-9-6,86.9,76.8,68.4,84.2,74.4,64.4,100,93,54,0.00,40.00,7,2,13,0.00
2014-9-7,76.5,67.3,60.3,68.4,57.6,45.3,100,76,36,0.00,40.00,8,1,13,0.00
2014-9-8,74.1,62.7,55.2,61.9,53.7,46.8,100,76,40,0.00,40.00,8,1,13,0.00
2014-9-9,69.6,61.2,54.1,64.0,55.2,45.7,100,84,49,0.00,40.00,9,1,14,0.00
2014-9-10,73.6,62.8,56.7,66.4,59.4,53.2,100,91,54,0.00,40.00,5,1,9,0.00
2014-9-11,76.1,67.4,60.4,76.1,67.4,60.4,100,100,97,0.00,40.00,13,2,14,0.00
2014-9-12,72.9,61.2,54.1,62.1,52.4,45.7,100,76,45,0.00,40.00,8,2,14,0.00
2014-9-13,64.2,56.4,49.5,64.2,55.7,44.2,100,98,74,0.00,40.00,8,2,13,0.00
2014-9-14,65.3,54.9,47.1,56.3,49.6,42.8,100,85,48,0.00,40.00,8,2,12,0.00
2014-9-15,66.2,54.3,45.9,53.6,47.1,40.5,100,80,45,0.00,40.00,7,1,9,0.00
2014-9-16,64.4,56.8,50.0,62.8,55.6,50.0,100,96,69,0.00,40.00,5,0,8,0.00
2014-9-17,68.7,57.6,49.5,56.7,49.8,40.5,100,80,42,0.00,40.00,7,1,10,0.00
2014-9-18,71.1,58.2,46.2,56.8,49.6,43.3,100,76,44,0.00,40.00,7,2,17,0.00
2014-9-19,61.0,50.3,43.9,48.2,37.4,31.1,87,62,37,0.00,40.00,9,1,15,0.00
2014-9-20,69.1,54.8,41.2,64.4,52.2,40.1,100,92,61,0.00,40.00,8,1,13,0.00
2014-9-21,75.2,66.4,57.7,75.2,66.4,57.7,100,100,100,0.00,40.00,6,0,9,0.00
2014-9-22,67.8,60.8,47.3,67.8,52.2,38.3,100,76,45,0.00,40.00,10,3,19,0.00
2014-9-23,68.4,53.8,42.6,57.7,47.4,41.7,100,83,43,0.00,40.00,6,1,9,0.00
2014-9-24,67.5,57.5,49.5,61.3,53.6,46.6,100,89,55,0.00,40.00,6,1,9,0.00
2014-9-25,60.4,55.6,51.1,60.4,55.5,51.1,100,100,97,0.00,40.00,7,1,9,0.00
2014-9-26,75.2,61.2,52.9,64.4,56.0,48.7,100,86,45,0.00,40.00,8,1,13,0.00
2014-9-27,80.4,63.6,56.1,68.4,60.1,52.2,100,58,40,0.00,40.00,7,1,9,0.00
2014-9-28,74.5,64.3,55.8,74.5,64.3,55.8,0,0,100,0.00,40.00,6,1,9,0.00
2014-9-29,70.3,61.9,55.0,70.3,61.9,55.0,0,0,100,0.00,40.00,6,1,11,0.00
2014-9-30,58.3,54.8,52.2,58.3,54.8,52.2,0,0,100,0.00,40.00,6,1,10,0.00
2014-10-1,56.3,54.6,52.9,56.3,54.6,52.9,0,0,100,0.00,40.00,10,2,18,0.00
2014-10-2,56.3,53.0,48.4,56.3,53.0,48.4,0,0,100,0.00,40.00,9,2,14,0.00
2014-10-3,61.9,52.1,45.3,61.9,52.1,45.3,0,0,100,0.00,40.00,8,1,12,0.00
2014-10-4,61.9,56.0,51.3,61.9,56.0,51.3,100,6,100,0.00,40.00,5,0,10,0.00
2014-10-5,62.4,50.6,41.9,59.5,32.6,-45.9,100,62,1,0.00,40.00,8,2,13,0.00
2014-10-6,67.8,51.1,39.7,49.8,35.3,10.6,100,62,13,0.00,40.00,9,1,13,0.00
2014-10-7,73.2,59.8,47.7,62.1,49.1,16.3,100,66,14,0.00,40.00,9,1,15,0.00
2014-10-8,70.7,62.2,53.6,70.3,36.7,-36.8,100,44,1,0.00,40.00,11,2,15,0.00
2014-10-9,64.2,53.0,44.1,64.2,25.9,-48.1,100,20,1,0.00,40.00,10,2,15,0.00
2014-10-10,59.5,51.2,42.6,49.5,25.0,3.9,100,39,11,0.00,40.00,8,2,13,0.00
2014-10-11,51.3,46.8,44.2,51.1,39.6,29.5,100,77,52,0.00,40.00,4,0,5,0.00
2014-10-12,66.6,49.4,39.9,45.9,24.9,-13.0,100,51,4,0.00,40.00,9,1,12,0.00
2014-10-13,60.4,51.3,40.6,59.9,34.6,23.0,100,55,27,0.00,40.00,4,0,10,0.00
2014-10-14,75.6,64.3,55.0,65.7,50.9,21.9,100,70,14,0.00,40.00,11,1,12,0.00
2014-10-15,77.2,67.4,0.0,77.2,56.9,-19.1,100,74,6,0.00,40.00,7,1,12,0.12
2014-10-16,65.8,64.5,63.7,65.5,21.1,-18.8,14,6,3,0.00,40.00,8,1,8,1.09
2014-10-22,52.9,48.8,47.3,47.8,45.7,44.4,90,89,82,0.00,40.00,23,7,28,0.15
2014-10-23,53.8,50.0,46.2,50.5,47.0,43.5,91,90,87,0.00,40.00,21,6,28,0.14
2014-10-24,53.8,49.9,46.2,48.9,44.4,40.5,91,81,70,0.00,40.00,13,3,16,0.02
2014-10-25,66.9,53.2,42.4,46.0,41.7,36.5,83,66,40,0.00,40.00,13,5,13,0.00
2014-10-26,57.4,51.6,46.6,46.2,40.1,35.2,75,65,49,0.00,40.00,22,9,22,0.00
2014-10-27,62.6,51.4,44.4,40.3,38.5,35.6,78,63,39,0.00,40.00,15,3,18,0.00
2014-10-28,69.4,54.1,42.1,57.2,46.8,36.7,91,77,55,0.00,40.00,9,0,10,0.00
2014-10-29,73.9,59.2,50.2,59.9,51.9,41.4,91,78,51,0.00,40.00,15,2,15,0.00
2014-10-30,56.7,48.7,43.2,45.9,38.9,34.3,89,70,49,0.00,40.00,14,2,17,0.00
2014-10-31,54.7,47.5,42.3,45.7,38.2,34.7,90,71,57,0.00,40.00,9,1,10,0.00
2014-11-1,48.4,42.6,37.9,42.6,36.9,31.6,90,81,65,0.00,40.00,19,5,25,0.08
2014-11-2,60.3,38.3,0.0,45.3,25.2,-54.6,86,59,36,0.00,40.00,21,8,32,0.00
2014-11-3,52.5,42.1,31.5,31.8,20.8,10.2,57,44,25,0.00,40.00,18,4,22,0.00
2014-11-4,65.1,52.7,43.7,41.9,30.1,23.9,68,43,25,0.00,40.00,8,1,11,0.00
2014-11-5,64.8,52.8,41.2,45.0,39.5,33.8,84,63,36,0.00,40.00,15,2,16,0.00
2014-11-6,48.9,45.6,41.7,45.9,41.3,30.6,94,85,64,0.00,40.00,10,1,10,0.34
2014-11-7,47.5,42.9,36.0,45.0,35.6,26.6,94,76,57,0.00,40.00,17,5,24,0.00
2014-11-8,48.4,38.3,28.8,30.4,24.4,17.6,77,58,29,0.00,40.00,13,4,13,0.00
2014-11-9,54.9,43.3,0.0,35.6,32.2,-14.3,80,65,43,0.00,40.00,8,1,11,1.88
2014-11-10,59.4,45.4,32.2,35.2,32.2,28.8,88,63,34,0.00,40.00,8,1,8,0.00
2014-11-11,63.1,49.9,36.9,52.3,43.5,33.1,95,80,55,0.00,40.00,7,1,12,0.00
2014-11-12,65.1,54.1,41.2,55.9,48.3,31.8,96,82,58,0.00,40.00,9,2,15,0.00
2014-11-13,49.8,41.2,31.3,36.1,30.7,27.7,95,68,44,0.00,40.00,6,1,9,0.09
2014-11-14,40.5,35.5,29.8,34.7,29.1,21.4,96,79,53,0.00,40.00,12,4,20,0.08
2014-11-15,38.7,31.2,25.5,25.0,21.6,18.1,88,69,47,0.00,40.00,9,2,14,0.00
2014-11-16,42.1,33.6,24.6,30.6,25.3,20.3,84,72,56,0.00,40.00,6,0,12,0.00
2014-11-17,39.7,38.7,37.0,38.7,37.6,36.0,96,96,96,0.00,40.00,1,0,4,0.11
2014-11-19,29.7,28.3,27.0,17.2,15.4,12.7,61,58,53,0.00,40.00,9,2,11,0.00
2014-11-20,45.5,35.3,28.8,25.3,21.0,15.1,70,57,39,0.00,40.00,16,4,28,0.00
2014-11-21,33.3,28.0,23.4,20.1,14.9,10.6,69,58,46,0.00,40.00,16,6,25,0.00
2014-11-22,42.3,32.8,21.6,25.3,16.1,9.9,74,52,28,0.00,40.00,12,3,17,0.00
2014-11-23,59.4,46.8,38.8,43.2,33.3,24.6,77,60,49,0.00,40.00,9,2,14,0.00
2014-11-24,64.9,56.0,41.2,61.9,52.3,34.7,95,87,77,0.00,40.00,11,3,23,0.01
2014-11-25,64.0,55.0,42.3,56.7,41.0,29.7,92,62,36,0.00,40.00,10,3,16,0.00
2014-11-26,43.7,37.5,32.2,35.4,33.0,31.1,96,85,65,0.00,40.00,6,0,11,0.00
2014-11-27,36.5,32.9,29.5,33.1,30.8,27.1,97,92,86,0.00,40.00,0,0,0,0.83
2014-11-28,34.9,29.1,22.3,28.4,24.5,18.1,93,83,67,0.00,40.00,15,2,17,2.08
2014-11-29,34.2,26.0,17.8,25.3,20.6,15.6,92,80,63,0.00,40.00,6,0,7,1.10
2014-11-30,31.5,30.3,28.8,28.0,26.5,24.3,87,85,83,0.00,40.00,0,0,0,0.14
2014-12-3,43.2,42.3,41.4,39.6,38.2,36.9,87,86,84,0.00,40.00,9,8,15,0.00